Regional Weather Roundup
Issued by NWS State College, PA

Home | Current Version | Previous Version | Graphics & Text | Print | Product List | Glossary Off
Versions: 1 2 3 4 5 6 7 8 9 10 11 12 13 14 15 16 17 18 19 20 21 22 23 24 25 26 27 28 29 30 31 32 33 34 35 36 37 38 39 40 41 42 43 44 45 46 47 48 49 50

000
ASUS41 KCTP 140410
RWRCTP

REGIONAL WEATHER ROUNDUP
NATIONAL WEATHER SERVICE STATE COLLEGE PA
1100 PM EST WED DEC 13 2017

Note: "fair" indicates few or no clouds below 12,000 feet with no
significant weather and/or obstructions to visibility.

* = STATION THAT DOES NOT REPORT PRECIPITATION /E.G. RAIN...SNOW...ETC/
    THUNDER OR FOG.

PAZ002>004-007>009-013>016-020>023-029>032-140500-
WESTERN PENNSYLVANIA

CITY           SKY/WX    TMP DP  RH WIND       PRES   REMARKS
ERIE           CLOUDY    21  16  81 E6        29.46F WCI  13
MEADVILLE      LGT SNOW  19  17  92 VRB5      29.39F VSB 1   WCI  12
FRANKLIN*      LGT SNOW  18  16  93 SE7       29.40F FOG     WCI   8
NEW CASTLE     LGT SNOW  22  21  96 VRB3      29.41F FOG
BEAVER COUNTY  NOT AVBL
BUTLER*        LGT SNOW  21  19  92 SE7       29.42F FOG     WCI  12
PITTSBURGH INT LGT SNOW  24  21  88 S7        29.41S FOG
PITTSBURGH     LGT SNOW  23  20  88 S10       29.41F FOG     WCI  12
INDIANA*       CLOUDY    25  23  93 SW5       29.47F FOG
LATROBE        CLOUDY    28  27  93 S10       29.44F
WASHINGTON CO* FLURRIES  25  21  85 S6        29.44F
$$

PAZ004>006-010>012-017>019-024>028-033>037-041-042-045-046-049>053-140500-
CENTRAL PENNSYLVANIA

CITY           SKY/WX    TMP DP  RH WIND       PRES   REMARKS
BRADFORD       LGT SNOW  14  12  92 SE6       29.40F FOG     WCI   5
DUBOIS         LGT SNOW  17  14  88 E8        29.40F FOG     WCI   7
CLEARFIELD     LGT SNOW  18  16  92 NE7       29.45F FOG     WCI   9
JOHNSTOWN      LGT SNOW  23  21  92 S12       29.39F FOG     WCI  12
ALTOONA        LGT SNOW  24  21  88 CALM      29.47F FOG
STATE COLLEGE  LGT SNOW  19  17  91 N3        29.50F
WILLIAMSPORT   LGT SNOW  22  18  85 E6        29.58F FOG     WCI  14
SELINSGROVE    LGT SNOW  21  19  92 E3        29.60F FOG
FT INDIANTOWN  LGT SNOW  22  22  99 CALM      29.60F FOG
CAPITAL CITY   LGT SNOW  25  21  85 E6        29.59F FOG
HARRISBURG     LGT SNOW  25  23  92 SE7       29.59F FOG
YORK           CLOUDY    25  23  92 E6        29.57F
$$

PAZ038>040-043-044-047-048-054-055-060>062-067>071-140500-
EASTERN PENNSYLVANIA

CITY           SKY/WX    TMP DP  RH WIND       PRES   REMARKS
SCRANTON       LGT SNOW  19  16  88 CALM      29.59S VSB 3/4
MOUNT POCONO   LGT SNOW  14  12  92 W8        29.51F FOG     WCI   3
ALLENTOWN      LGT SNOW  23  18  81 SW5       29.66S
QUAKERTOWN*    CLOUDY    23  19  86 CALM      29.67S
READING        LGT SNOW  23  23 100 CALM      29.63F FOG
LANCASTER      LGT SNOW  24  23  96 E6        29.60F FOG
COATESVILLE    LGT SNOW  23  23 100 CALM      29.64F VSB 3/4
POTTSTOWN      SNOW      22  21  96 SE3       29.67F VSB 1/2
BLUE BELL      CLOUDY    23  23 100 CALM      29.70S VSB 1
DOYLESTOWN     LGT SNOW  22  19  89 SW7       29.67S FOG     WCI  13
WILLOW GROVE   NOT AVBL
NORTH PHILA    LGT SNOW  27  23  85 SW6       29.71S VSB 3/4
PHILADELPHIA   LGT SNOW  27  24  89 S8        29.71S VSB 3/4
$$




USA.gov is the U.S. government's official web portal to all federal, state and local government web resources and services.